Volver al catálogo

QIANFAN-177

ActivoComunicacionesPO
NORAD 69394·PAYLOAD·🇨🇳 China

Lanzado Jun 4, 2026 desde Taiyuan Satellite Launch Center

Loading…

Próximos Pases (próximas 24 horas)

TLE

ActualizadoSource: Space-Track

Época: Sep 14, 2026, 21:16 UTC

1 69394U 26124N   26257.88624888  .00000135  00000-0  18981-3 0  9999
2 69394  89.0068 352.5248 0002078 109.7669 250.3707 13.51029412 14184

Sigue QIANFAN-177 en tiempo real con AllMySat

Download on the App Store